VHXCJ SAAR-SABE

Flight info

Callsign VHXCJ
Flight time 0h 29m
Altitude 21000
Route VASA1G VASAL W20 MULTA W24 SNT SNT8Q
Aircraft C750/M-V/N

Departure

Time 2026-04-20 18:29
Airport Rosario Islas Malvinas International Airport (SAAR)

Arrival

Time 2026-04-20 18:59
Airport Aeroparque Jorge Newbery (SABE)
Time Latitude Longitude Altitude Speed Heading
2026-04-20 18:00 -32.92075 -60.78276 89 ft 0 kts 146°
2026-04-20 18:18 -32.92065 -60.78283 89 ft 2 kts 158°
2026-04-20 18:18 -32.92053 -60.78286 89 ft 3 kts 174°
2026-04-20 18:18 -32.92040 -60.78286 89 ft 3 kts 189°
2026-04-20 18:19 -32.92031 -60.78283 89 ft 3 kts 200°
2026-04-20 18:19 -32.92026 -60.78281 89 ft 0 kts 203°
2026-04-20 18:19 -32.92025 -60.78281 89 ft 0 kts 203°
2026-04-20 18:19 -32.92021 -60.78278 89 ft 1 kts 207°
2026-04-20 18:20 -32.92017 -60.78275 89 ft 0 kts 232°
2026-04-20 18:22 -32.92017 -60.78276 89 ft 0 kts 232°
2026-04-20 18:23 -32.92020 -60.78288 89 ft 3 kts 282°
2026-04-20 18:23 -32.91998 -60.78318 89 ft 9 kts 313°
2026-04-20 18:23 -32.91939 -60.78394 89 ft 18 kts 313°
2026-04-20 18:24 -32.91843 -60.78519 89 ft 27 kts 312°
2026-04-20 18:24 -32.91738 -60.78655 89 ft 17 kts 312°
2026-04-20 18:24 -32.91626 -60.78742 89 ft 23 kts 358°
2026-04-20 18:25 -32.91439 -60.78708 89 ft 31 kts 11°
2026-04-20 18:25 -32.91200 -60.78653 89 ft 39 kts 11°
2026-04-20 18:25 -32.90905 -60.78586 89 ft 47 kts 11°
2026-04-20 18:25 -32.90553 -60.78505 89 ft 55 kts 11°
2026-04-20 18:26 -32.90151 -60.78413 89 ft 64 kts 11°
2026-04-20 18:26 -32.89684 -60.78306 89 ft 69 kts 11°
2026-04-20 18:26 -32.89314 -60.78221 89 ft 32 kts 11°
2026-04-20 18:26 -32.89154 -60.78184 89 ft 20 kts 11°
2026-04-20 18:27 -32.89070 -60.78121 89 ft 14 kts 17°
2026-04-20 18:27 -32.89028 -60.78160 89 ft 8 kts 226°
2026-04-20 18:27 -32.89048 -60.78170 89 ft 0 kts 192°
2026-04-20 18:29 -32.89115 -60.78185 89 ft 43 kts 192°
2026-04-20 18:29 -32.89842 -60.78354 90 ft 168 kts 191°
2026-04-20 18:29 -32.91365 -60.78710 624 ft 273 kts 191°
2026-04-20 18:29 -32.93508 -60.79208 2384 ft 346 kts 191°
2026-04-20 18:30 -32.95995 -60.79759 4450 ft 357 kts 191°
2026-04-20 18:30 -32.98312 -60.79702 6220 ft 321 kts 168°
2026-04-20 18:30 -33.00312 -60.78524 7455 ft 328 kts 153°
2026-04-20 18:30 -33.02414 -60.77104 8476 ft 361 kts 153°
2026-04-20 18:31 -33.04731 -60.75557 9171 ft 406 kts 153°
2026-04-20 18:31 -33.07307 -60.73851 9771 ft 434 kts 153°
2026-04-20 18:31 -33.09857 -60.72071 9705 ft 411 kts 150°
2026-04-20 18:31 -33.12155 -60.70184 10329 ft 395 kts 146°
2026-04-20 18:32 -33.14345 -60.68193 10956 ft 396 kts 144°
2026-04-20 18:32 -33.16483 -60.66123 11582 ft 396 kts 143°
2026-04-20 18:32 -33.18593 -60.63998 12207 ft 398 kts 142°
2026-04-20 18:32 -33.20682 -60.61846 12829 ft 401 kts 141°
2026-04-20 18:33 -33.22800 -60.59637 13459 ft 404 kts 141°
2026-04-20 18:33 -33.24913 -60.57421 14084 ft 407 kts 141°
2026-04-20 18:33 -33.27044 -60.55184 14710 ft 410 kts 141°
2026-04-20 18:33 -33.29221 -60.52899 15344 ft 414 kts 141°
2026-04-20 18:34 -33.31040 -60.51017 15866 ft 416 kts 143°
2026-04-20 18:34 -33.33385 -60.48867 16460 ft 424 kts 147°
2026-04-20 18:34 -33.35798 -60.46886 16966 ft 425 kts 149°
2026-04-20 18:34 -33.38295 -60.44980 17469 ft 426 kts 151°
2026-04-20 18:35 -33.40840 -60.43126 17971 ft 429 kts 152°
2026-04-20 18:35 -33.43416 -60.41301 18473 ft 431 kts 152°
2026-04-20 18:35 -33.46021 -60.39484 18975 ft 434 kts 153°
2026-04-20 18:35 -33.48646 -60.37669 19476 ft 437 kts 153°
2026-04-20 18:36 -33.51293 -60.35842 19978 ft 440 kts 153°
2026-04-20 18:36 -33.53962 -60.34001 20480 ft 444 kts 153°
2026-04-20 18:36 -33.56651 -60.32144 20853 ft 450 kts 153°
2026-04-20 18:36 -33.59381 -60.30255 20972 ft 454 kts 153°
2026-04-20 18:37 -33.62087 -60.28376 21004 ft 456 kts 153°
2026-04-20 18:37 -33.64836 -60.26461 21001 ft 458 kts 153°
2026-04-20 18:37 -33.67614 -60.24520 20998 ft 461 kts 152°
2026-04-20 18:37 -33.70393 -60.22574 20997 ft 462 kts 152°
2026-04-20 18:38 -33.73177 -60.20619 20996 ft 463 kts 152°
2026-04-20 18:38 -33.75958 -60.18662 20996 ft 464 kts 152°
2026-04-20 18:38 -33.78744 -60.16697 20996 ft 464 kts 152°
2026-04-20 18:38 -33.81470 -60.14699 20994 ft 466 kts 148°
2026-04-20 18:39 -33.83987 -60.12199 20997 ft 470 kts 139°
2026-04-20 18:39 -33.86237 -60.09335 20998 ft 472 kts 133°
2026-04-20 18:39 -33.88298 -60.06257 20997 ft 473 kts 129°
2026-04-20 18:39 -33.90243 -60.03039 20997 ft 474 kts 127°
2026-04-20 18:40 -33.91968 -59.99999 20996 ft 474 kts 126°
2026-04-20 18:40 -33.93843 -59.96566 20996 ft 474 kts 124°
2026-04-20 18:40 -33.95630 -59.93226 20996 ft 474 kts 124°
2026-04-20 18:40 -33.97405 -59.89878 20996 ft 474 kts 124°
2026-04-20 18:41 -33.99180 -59.86525 20996 ft 474 kts 124°
2026-04-20 18:41 -34.00962 -59.83169 20996 ft 474 kts 124°
2026-04-20 18:41 -34.02741 -59.79834 20996 ft 474 kts 124°
2026-04-20 18:41 -34.04534 -59.76491 20996 ft 474 kts 124°
2026-04-20 18:42 -34.06309 -59.73201 20996 ft 474 kts 125°
2026-04-20 18:42 -34.08143 -59.69818 20996 ft 474 kts 125°
2026-04-20 18:42 -34.09945 -59.66509 20996 ft 474 kts 125°
2026-04-20 18:42 -34.11749 -59.63206 20996 ft 471 kts 125°
2026-04-20 18:43 -34.13561 -59.59898 20995 ft 462 kts 125°
2026-04-20 18:43 -34.15282 -59.56758 20993 ft 443 kts 125°
2026-04-20 18:43 -34.16958 -59.53702 20991 ft 425 kts 125°
2026-04-20 18:43 -34.18563 -59.50776 20991 ft 410 kts 126°
2026-04-20 18:44 -34.20108 -59.47937 20991 ft 400 kts 123°
2026-04-20 18:44 -34.21365 -59.44941 20832 ft 400 kts 114°
2026-04-20 18:44 -34.22337 -59.41788 20552 ft 399 kts 111°
2026-04-20 18:44 -34.23284 -59.38674 20264 ft 398 kts 112°
2026-04-20 18:45 -34.24273 -59.35523 19962 ft 397 kts 112°
2026-04-20 18:45 -34.25251 -59.32445 19665 ft 395 kts 112°
2026-04-20 18:45 -34.26251 -59.29316 19361 ft 394 kts 112°
2026-04-20 18:45 -34.27231 -59.26254 19063 ft 393 kts 112°
2026-04-20 18:46 -34.28228 -59.23142 18760 ft 393 kts 112°
2026-04-20 18:46 -34.29209 -59.20076 18458 ft 393 kts 112°
2026-04-20 18:46 -34.30189 -59.17015 18139 ft 393 kts 112°
2026-04-20 18:46 -34.31181 -59.13913 17812 ft 393 kts 112°
2026-04-20 18:47 -34.32178 -59.10793 17484 ft 394 kts 112°
2026-04-20 18:47 -34.33163 -59.07708 17208 ft 393 kts 112°
2026-04-20 18:47 -34.34135 -59.04656 17074 ft 389 kts 112°
2026-04-20 18:47 -34.35365 -59.01738 16906 ft 383 kts 128°
2026-04-20 18:48 -34.37369 -58.99772 16526 ft 373 kts 160°
2026-04-20 18:48 -34.39847 -58.99471 16151 ft 356 kts 195°
2026-04-20 18:48 -34.41928 -59.00903 15780 ft 341 kts 228°
2026-04-20 18:48 -34.43116 -59.03337 15408 ft 332 kts 253°
2026-04-20 18:49 -34.43303 -59.06080 15035 ft 329 kts 277°
2026-04-20 18:49 -34.43101 -59.07117 14891 ft 329 kts 287°
2026-04-20 18:49 -34.42533 -59.08532 14678 ft 330 kts 301°
2026-04-20 18:49 -34.40797 -59.10373 14299 ft 337 kts 330°
2026-04-20 18:50 -34.38478 -59.10924 13925 ft 351 kts 359°
2026-04-20 18:50 -34.36138 -59.10007 13559 ft 364 kts 26°
2026-04-20 18:50 -34.35388 -59.09462 13440 ft 366 kts 28°
2026-04-20 18:50 -34.33836 -59.08312 13175 ft 368 kts 29°
2026-04-20 18:51 -34.31832 -59.06343 12797 ft 372 kts 42°
2026-04-20 18:51 -34.30201 -59.03955 12428 ft 374 kts 53°
2026-04-20 18:51 -34.29985 -59.03568 12372 ft 374 kts 54°
2026-04-20 18:51 -34.29036 -59.01219 12061 ft 375 kts 68°
2026-04-20 18:52 -34.28372 -58.98207 11671 ft 374 kts 79°
2026-04-20 18:52 -34.28092 -58.95080 11128 ft 372 kts 88°
2026-04-20 18:52 -34.28120 -58.92986 10761 ft 371 kts 93°
2026-04-20 18:52 -34.28377 -58.89905 10215 ft 369 kts 98°
2026-04-20 18:53 -34.28836 -58.86867 9661 ft 362 kts 105°
2026-04-20 18:53 -34.29975 -58.83212 8938 ft 338 kts 116°
2026-04-20 18:53 -34.30653 -58.81511 8568 ft 328 kts 118°
2026-04-20 18:53 -34.31715 -58.79116 8018 ft 317 kts 122°
2026-04-20 18:54 -34.32839 -58.76883 7471 ft 308 kts 124°
2026-04-20 18:54 -34.34015 -58.74743 6922 ft 302 kts 127°
2026-04-20 18:54 -34.35216 -58.72690 6427 ft 296 kts 128°
2026-04-20 18:54 -34.36436 -58.70702 5973 ft 289 kts 128°
2026-04-20 18:55 -34.37637 -58.68805 5525 ft 283 kts 128°
2026-04-20 18:55 -34.38836 -58.66953 5071 ft 274 kts 128°
2026-04-20 18:55 -34.39995 -58.65187 4615 ft 260 kts 128°
2026-04-20 18:55 -34.41099 -58.63520 4163 ft 249 kts 128°
2026-04-20 18:56 -34.42171 -58.61910 3753 ft 238 kts 128°
2026-04-20 18:56 -34.43207 -58.60359 3604 ft 240 kts 128°
2026-04-20 18:56 -34.44296 -58.58782 3543 ft 251 kts 130°
2026-04-20 18:56 -34.45515 -58.57210 3491 ft 262 kts 134°
2026-04-20 18:57 -34.46803 -58.55590 3078 ft 277 kts 134°
2026-04-20 18:57 -34.48182 -58.53889 2684 ft 288 kts 135°
2026-04-20 18:57 -34.49567 -58.52170 2132 ft 281 kts 134°
2026-04-20 18:57 -34.50889 -58.50449 1535 ft 272 kts 130°
2026-04-20 18:58 -34.51997 -58.48673 1069 ft 261 kts 125°
2026-04-20 18:58 -34.52992 -58.46891 688 ft 252 kts 123°
2026-04-20 18:58 -34.53938 -58.45140 395 ft 243 kts 123°
2026-04-20 18:58 -34.54851 -58.43487 180 ft 230 kts 124°
2026-04-20 18:59 -34.55732 -58.41915 23 ft 189 kts 124°
2026-04-20 18:59 -34.56111 -58.41241 22 ft 32 kts 124°
2026-04-20 18:59 -34.56177 -58.41126 22 ft 9 kts 135°
2026-04-20 18:59 -34.56223 -58.41113 22 ft 5 kts 200°
2026-04-20 19:00 -34.56263 -58.41142 22 ft 8 kts 213°
2026-04-20 19:00 -34.56315 -58.41183 22 ft 9 kts 212°
2026-04-20 19:00 -34.56351 -58.41200 22 ft 3 kts 160°
2026-04-20 19:00 -34.56366 -58.41178 22 ft 4 kts 124°
2026-04-20 19:01 -34.56378 -58.41142 22 ft 5 kts 65°
2026-04-20 19:01 -34.56362 -58.41127 22 ft 0 kts 31°
2026-04-20 19:04 -32.92108 -60.78091 85 ft 0 kts 189°